User: anonymous   Login
Location: Brachbach
(49.1847°N, 9.7240°E)
Time: 06:37:21
(UTC+00:00)
Language:

AO-85 - Orbit

View from above orbital plane
View from above orbital plane
View from above satellite
View from above satellite

Ground track
Ground track

The orbit is defined by the following mean orbital elements,

1 40967U          26069.80025514 +.00000000 +00000-0 +40787-3 0 00006
2 40967  64.7749 224.5937 0128853  95.4595 266.1231 14.90367024    08
Epoch (UTC): 10 March 2026 19:12:22
Eccentricity: 0.0128853
inclination: 64.7749°
perigee height: 507 km
apogee height: 687 km
right ascension of ascending node: 224.5937°
argument of perigee: 95.4595°
revolutions per day: 14.90367024
mean anomaly at epoch: 266.1231°

The dashed part of the orbit path shows where the satellite is in the earth's shadow,  

DLR